| time (UTC) | temp F | wind direction | speed MPH | gust MPH | rain 1hr in | rain 24hr in | rain mn in | humidity % | barometer mb |
| 20260504044537 | 46 | 285 | 0.0 | 2.0 | 0.00 | 0.00 | 0.00 | 63 | 1017.7 |
| 20260504043045 | 46 | 279 | 0.0 | 1.0 | 0.00 | 0.00 | 0.00 | 62 | 1017.7 |
| 20260504041536 | 46 | 287 | 0.0 | 2.0 | 0.00 | 0.00 | 0.00 | 61 | 1017.7 |
| 20260504040031 | 47 | 270 | 0.0 | 2.0 | 0.00 | 0.00 | 0.00 | 60 | 1017.5 |
| 20260504034530 | 47 | 293 | 0.0 | 2.0 | 0.00 | 0.00 | 0.00 | 59 | 1017.5 |
| 20260504033031 | 48 | 275 | 0.0 | 2.0 | 0.00 | 0.00 | 0.00 | 58 | 1017.5 |
| 20260504031528 | 48 | 280 | 0.0 | 1.0 | 0.00 | 0.00 | 0.00 | 55 | 1017.4 |
| 20260504030030 | 49 | 279 | 0.0 | 1.0 | 0.00 | 0.00 | 0.00 | 53 | 1017.2 |
| 20260504024528 | 49 | 262 | 0.0 | 1.0 | 0.00 | 0.00 | 0.00 | 53 | 1017.2 |
| 20260504023028 | 49 | 262 | 0.0 | 1.0 | 0.00 | 0.00 | 0.00 | 52 | 1017.1 |
| 20260504021526 | 50 | 255 | 0.0 | 1.0 | 0.00 | 0.00 | 0.00 | 49 | 1017.2 |
| 20260504020026 | 50 | 258 | 0.0 | 1.0 | 0.00 | 0.00 | 0.00 | 49 | 1017.2 |
| 20260504014533 | 51 | 261 | 0.0 | 2.0 | 0.00 | 0.00 | 0.00 | 47 | 1017.1 |
| 20260504013025 | 51 | 272 | 0.0 | 1.0 | 0.00 | 0.00 | 0.00 | 47 | 1017.0 |
| 20260504011525 | 50 | 255 | 0.0 | 1.0 | 0.00 | 0.00 | 0.00 | 49 | 1016.8 |
| 20260504010023 | 49 | 256 | 0.0 | 1.0 | 0.00 | 0.00 | 0.00 | 50 | 1016.7 |
| 20260504004523 | 50 | 268 | 0.0 | 1.0 | 0.00 | 0.00 | 0.00 | 50 | 1016.8 |
| 20260504003030 | 50 | 268 | 0.0 | 1.0 | 0.00 | 0.00 | 0.00 | 49 | 1016.6 |
| 20260504001521 | 52 | 271 | 0.0 | 1.0 | 0.00 | 0.00 | 0.00 | 47 | 1016.4 |
| 20260504000021 | 53 | 259 | 0.0 | 1.0 | 0.00 | 0.00 | 0.00 | 45 | 1016.3 |
| 20260503234520 | 56 | 269 | 0.0 | 2.0 | 0.00 | 0.00 | 0.00 | 41 | 1016.1 |
| 20260503233019 | 57 | 250 | 1.0 | 4.0 | 0.00 | 0.00 | 0.00 | 39 | 1015.9 |
| 20260503231523 | 58 | 256 | 1.0 | 5.0 | 0.00 | 0.00 | 0.00 | 38 | 1016.0 |
| 20260503230017 | 58 | 240 | 1.0 | 7.0 | 0.00 | 0.00 | 0.00 | 36 | 1015.9 |
| 20260503224517 | 59 | 327 | 3.0 | 11.0 | 0.00 | 0.00 | 0.00 | 37 | 1016.0 |
| 20260503223018 | 60 | 267 | 2.0 | 6.0 | 0.00 | 0.00 | 0.00 | 37 | 1015.9 |
| 20260503221516 | 60 | 266 | 4.0 | 9.0 | 0.00 | 0.00 | 0.00 | 35 | 1016.0 |
| 20260503220015 | 60 | 227 | 2.0 | 8.0 | 0.00 | 0.00 | 0.00 | 36 | 1015.9 |
| 20260503214521 | 59 | 227 | 5.0 | 11.0 | 0.00 | 0.00 | 0.00 | 36 | 1016.1 |
| 20260503213014 | 60 | 241 | 4.0 | 10.0 | 0.00 | 0.00 | 0.00 | 34 | 1016.0 |
| 20260503211514 | 61 | 240 | 5.0 | 10.0 | 0.00 | 0.00 | 0.00 | 35 | 1015.8 |
| 20260503210013 | 59 | 275 | 4.0 | 9.0 | 0.00 | 0.00 | 0.00 | 34 | 1016.0 |
| 20260503204518 | 60 | 268 | 6.0 | 14.0 | 0.00 | 0.00 | 0.00 | 34 | 1016.0 |
| 20260503203010 | 60 | 269 | 3.0 | 11.0 | 0.00 | 0.00 | 0.00 | 37 | 1016.0 |
| 20260503201511 | 60 | 269 | 4.0 | 9.0 | 0.00 | 0.00 | 0.00 | 34 | 1016.0 |
| 20260503200008 | 59 | 271 | 4.0 | 10.0 | 0.00 | 0.00 | 0.00 | 37 | 1016.3 |
| 20260503194507 | 59 | 269 | 5.0 | 9.0 | 0.00 | 0.00 | 0.00 | 35 | 1016.4 |
| 20260503193006 | 59 | 257 | 3.0 | 12.0 | 0.00 | 0.00 | 0.00 | 32 | 1016.6 |
| 20260503191516 | 59 | 298 | 3.0 | 10.0 | 0.00 | 0.00 | 0.00 | 35 | 1016.8 |
| 20260503190004 | 58 | 255 | 4.0 | 12.0 | 0.00 | 0.00 | 0.00 | 37 | 1017.0 |
| 20260503184502 | 58 | 221 | 5.0 | 11.0 | 0.00 | 0.00 | 0.00 | 36 | 1017.2 |
| 20260503183001 | 58 | 263 | 4.0 | 11.0 | 0.00 | 0.00 | 0.00 | 36 | 1017.3 |
| 20260503181602 | 58 | 264 | 3.0 | 10.0 | 0.00 | 0.00 | 0.00 | 39 | 1017.3 |
| 20260503180111 | 56 | 255 | 5.0 | 11.0 | 0.00 | 0.00 | 0.00 | 41 | 1017.5 |
| 20260503174555 | 57 | 272 | 7.0 | 13.0 | 0.00 | 0.00 | 0.00 | 36 | 1017.6 |
| 20260503173103 | 56 | 274 | 4.0 | 12.0 | 0.00 | 0.00 | 0.00 | 43 | 1017.6 |
| 20260503171551 | 55 | 205 | 2.0 | 8.0 | 0.00 | 0.00 | 0.00 | 38 | 1017.7 |
| 20260503110105 | 39 | 275 | 1.0 | 5.0 | 0.00 | 0.00 | 0.00 | 65 | 1018.1 |
| 20260503081533 | 43 | 266 | 2.0 | 6.0 | 0.00 | 0.00 | 0.00 | 61 | 1016.2 |
| 20260503071531 | 42 | 167 | 2.0 | 6.0 | 0.00 | 0.00 | 0.00 | 64 | 1015.8 |